| time (UTC) | temp F | wind direction | speed knots | gust knots | rain 1hr in | rain 24hr in | rain mn in | humidity % | barometer mb |
| 20260506201432 | 71 | 249 | 2.6 | 10.4 | 0.00 | 0.01 | 0.01 | 70 | 1009.2 |
| 20260506200433 | 69 | 218 | 2.6 | 12.2 | 0.00 | 0.01 | 0.01 | 71 | 1009.6 |
| 20260506195433 | 69 | 196 | 2.6 | 9.6 | 0.00 | 0.01 | 0.01 | 72 | 1009.6 |
| 20260506194433 | 68 | 246 | 5.2 | 12.2 | 0.00 | 0.01 | 0.01 | 73 | 1009.9 |
| 20260506193434 | 68 | 102 | 1.7 | 8.7 | 0.00 | 0.01 | 0.01 | 73 | 1009.9 |
| 20260506192434 | 68 | 264 | 3.5 | 7.8 | 0.00 | 0.01 | 0.01 | 74 | 1009.9 |
| 20260506191434 | 67 | 216 | 3.5 | 10.4 | 0.00 | 0.01 | 0.01 | 75 | 1009.9 |
| 20260506190432 | 67 | 226 | 7.8 | 7.8 | 0.00 | 0.01 | 0.01 | 75 | 1010.2 |
| 20260506185434 | 67 | 236 | 4.3 | 11.3 | 0.00 | 0.01 | 0.01 | 75 | 1010.2 |
| 20260506184431 | 67 | 222 | 5.2 | 9.6 | 0.00 | 0.01 | 0.01 | 76 | 1010.2 |
| 20260506183435 | 66 | 253 | 3.5 | 7.8 | 0.00 | 0.01 | 0.01 | 76 | 1010.2 |
| 20260506182436 | 66 | 207 | 3.5 | 9.6 | 0.00 | 0.01 | 0.01 | 77 | 1010.2 |
| 20260506181433 | 66 | 256 | 3.5 | 9.6 | 0.00 | 0.01 | 0.01 | 78 | 1010.6 |
| 20260506180431 | 66 | 145 | 2.6 | 7.8 | 0.00 | 0.01 | 0.01 | 79 | 1010.2 |
| 20260506175432 | 65 | 165 | 1.7 | 7.8 | 0.00 | 0.01 | 0.01 | 78 | 1010.6 |
| 20260506174433 | 66 | 221 | 7.0 | 11.3 | 0.00 | 0.01 | 0.01 | 76 | 1010.9 |
| 20260506173430 | 66 | 131 | 0.9 | 6.1 | 0.00 | 0.01 | 0.01 | 77 | 1010.6 |
| 20260506173402 | 66 | 208 | 1.7 | 9.6 | 0.00 | 0.01 | 0.01 | 76 | 1010.6 |
| 20260506171430 | 66 | 87 | 4.3 | 7.8 | 0.01 | 0.01 | 0.01 | 77 | 1010.9 |
| 20260506170905 | 66 | 252 | 5.2 | 11.3 | 0.01 | 0.01 | 0.01 | 77 | 1010.9 |
| 20260506165434 | 66 | 279 | 1.7 | 7.0 | 0.01 | 0.01 | 0.01 | 77 | 1010.9 |
| 20260506164916 | 67 | 146 | 1.7 | 10.4 | 0.01 | 0.01 | 0.01 | 76 | 1011.2 |
| 20260506163434 | 67 | 157 | 0.9 | 4.3 | 0.01 | 0.01 | 0.01 | 77 | 1011.2 |
| 20260506162434 | 67 | 184 | 1.7 | 5.2 | 0.01 | 0.01 | 0.01 | 76 | 1011.2 |
| 20260506161435 | 67 | 244 | 2.6 | 7.8 | 0.00 | 0.00 | 0.00 | 74 | 1011.6 |
| 20260506160435 | 67 | 147 | 1.7 | 11.3 | 0.00 | 0.00 | 0.00 | 73 | 1011.9 |
| 20260506155433 | 68 | 216 | 2.6 | 7.8 | 0.00 | 0.00 | 0.00 | 71 | 1012.3 |
| 20260506154434 | 68 | 223 | 4.3 | 7.8 | 0.00 | 0.00 | 0.00 | 70 | 1011.9 |
| 20260506153435 | 68 | 165 | 3.5 | 9.6 | 0.00 | 0.00 | 0.00 | 69 | 1012.3 |
| 20260506152432 | 68 | 227 | 3.5 | 8.7 | 0.00 | 0.00 | 0.00 | 70 | 1011.9 |
| 20260506151432 | 68 | 259 | 0.9 | 8.7 | 0.00 | 0.00 | 0.00 | 68 | 1011.9 |
| 20260506150431 | 69 | 186 | 1.7 | 11.3 | 0.00 | 0.00 | 0.00 | 65 | 1011.9 |
| 20260506145435 | 70 | 260 | 2.6 | 7.8 | 0.00 | 0.00 | 0.00 | 64 | 1011.9 |
| 20260506144435 | 71 | 209 | 1.7 | 6.1 | 0.00 | 0.00 | 0.00 | 62 | 1012.3 |
| 20260506143432 | 70 | 196 | 3.5 | 6.1 | 0.00 | 0.00 | 0.00 | 64 | 1012.3 |
| 20260506142435 | 69 | 240 | 5.2 | 7.8 | 0.00 | 0.00 | 0.00 | 64 | 1011.9 |
| 20260506141916 | 69 | 272 | 2.6 | 10.4 | 0.00 | 0.00 | 0.00 | 63 | 1012.3 |
| 20260506140435 | 71 | 219 | 6.1 | 10.4 | 0.00 | 0.00 | 0.00 | 61 | 1012.3 |
| 20260506135436 | 72 | 84 | 2.6 | 10.4 | 0.00 | 0.00 | 0.00 | 62 | 1012.3 |
| 20260506134918 | 70 | 212 | 2.6 | 7.0 | 0.00 | 0.00 | 0.00 | 63 | 1011.9 |
| 20260506133434 | 69 | 245 | 0.9 | 7.8 | 0.00 | 0.00 | 0.00 | 64 | 1012.3 |
| 20260506132430 | 69 | 208 | 1.7 | 8.7 | 0.00 | 0.00 | 0.00 | 65 | 1012.3 |
| 20260506131436 | 68 | 199 | 3.5 | 8.7 | 0.00 | 0.00 | 0.00 | 65 | 1012.3 |
| 20260506130428 | 69 | 148 | 1.7 | 8.7 | 0.00 | 0.00 | 0.00 | 66 | 1012.3 |
| 20260506125427 | 68 | 81 | 0.9 | 9.6 | 0.00 | 0.00 | 0.00 | 66 | 1012.3 |
| 20260506124429 | 69 | 285 | 0.0 | 10.4 | 0.00 | 0.00 | 0.00 | 67 | 1012.3 |
| 20260506123913 | 68 | 94 | 1.7 | 7.0 | 0.00 | 0.00 | 0.00 | 68 | 1012.3 |
| 20260506122428 | 68 | 238 | 3.5 | 7.0 | 0.00 | 0.00 | 0.00 | 68 | 1011.9 |
| 20260506121425 | 68 | 136 | 0.9 | 6.1 | 0.00 | 0.00 | 0.00 | 68 | 1012.3 |
| 20260506120424 | 67 | 243 | 1.7 | 5.2 | 0.00 | 0.00 | 0.00 | 70 | 1012.3 |
| 20260506115421 | 66 | 231 | 1.7 | 6.1 | 0.00 | 0.00 | 0.00 | 73 | 1012.3 |
| 20260506114421 | 65 | 175 | 0.9 | 3.5 | 0.00 | 0.00 | 0.00 | 73 | 1012.3 |
| 20260506114355 | 65 | 149 | 2.6 | 6.1 | 0.00 | 0.00 | 0.00 | 73 | 1012.3 |
| 20260506112418 | 65 | 243 | 1.7 | 3.5 | 0.00 | 0.00 | 0.00 | 74 | 1011.9 |
| 20260506111853 | 65 | 128 | 3.5 | 5.2 | 0.00 | 0.00 | 0.00 | 74 | 1011.9 |
| 20260506110413 | 64 | 167 | 1.7 | 6.1 | 0.00 | 0.00 | 0.00 | 75 | 1011.9 |
| 20260506105412 | 64 | 144 | 0.9 | 7.8 | 0.00 | 0.00 | 0.00 | 76 | 1012.3 |
| 20260506104412 | 63 | 305 | 1.7 | 3.5 | 0.00 | 0.00 | 0.00 | 77 | 1012.3 |
| 20260506103411 | 63 | 117 | 0.9 | 4.3 | 0.00 | 0.00 | 0.00 | 78 | 1012.3 |
| 20260506102848 | 62 | 136 | 0.9 | 3.5 | 0.00 | 0.00 | 0.00 | 79 | 1012.3 |
| 20260506101408 | 62 | 133 | 0.0 | 4.3 | 0.00 | 0.00 | 0.00 | 79 | 1011.9 |
| 20260506100407 | 62 | 158 | 2.6 | 3.5 | 0.00 | 0.00 | 0.00 | 79 | 1012.3 |
| 20260506095408 | 63 | 112 | 1.7 | 5.2 | 0.00 | 0.00 | 0.00 | 79 | 1012.3 |
| 20260506094407 | 63 | 229 | 0.9 | 3.5 | 0.00 | 0.00 | 0.00 | 79 | 1012.3 |
| 20260506093406 | 63 | 119 | 0.9 | 4.3 | 0.00 | 0.00 | 0.00 | 78 | 1011.9 |
| 20260506092406 | 63 | 143 | 1.7 | 3.5 | 0.00 | 0.00 | 0.00 | 78 | 1011.9 |
| 20260506091405 | 63 | 131 | 1.7 | 3.5 | 0.00 | 0.00 | 0.00 | 78 | 1011.6 |
| 20260506090401 | 63 | 162 | 0.9 | 3.5 | 0.00 | 0.00 | 0.00 | 78 | 1011.9 |
| 20260506085400 | 63 | 89 | 1.7 | 3.5 | 0.00 | 0.00 | 0.00 | 78 | 1012.3 |
| 20260506084842 | 63 | 202 | 2.6 | 4.3 | 0.00 | 0.00 | 0.00 | 78 | 1011.9 |
| 20260506083358 | 64 | 131 | 1.7 | 2.6 | 0.00 | 0.00 | 0.00 | 78 | 1012.3 |
| 20260506082358 | 64 | 122 | 1.7 | 5.2 | 0.00 | 0.00 | 0.00 | 78 | 1012.3 |
| 20260506081834 | 64 | 159 | 1.7 | 7.8 | 0.00 | 0.00 | 0.00 | 77 | 1012.6 |
| 20260506080355 | 64 | 168 | 1.7 | 4.3 | 0.00 | 0.00 | 0.00 | 77 | 1012.3 |
| 20260506072350 | 64 | 153 | 0.0 | 3.5 | 0.00 | 0.00 | 0.00 | 77 | 1012.3 |
| 20260506071350 | 64 | 137 | 0.9 | 3.5 | 0.00 | 0.00 | 0.00 | 76 | 1012.3 |
| 20260506070348 | 64 | 179 | 0.9 | 3.5 | 0.00 | 0.00 | 0.00 | 77 | 1012.3 |
| 20260506062332 | 65 | 132 | 0.9 | 3.5 | 0.00 | 0.00 | 0.00 | 75 | 1012.3 |
| 20260506061331 | 65 | 133 | 1.7 | 3.5 | 0.00 | 0.00 | 0.00 | 75 | 1012.3 |
| 20260506060813 | 66 | 119 | 0.9 | 5.2 | 0.00 | 0.00 | 0.00 | 74 | 1012.3 |
| 20260506051335 | 66 | 161 | 0.9 | 3.5 | 0.00 | 0.00 | 0.00 | 73 | 1012.6 |
| 20260506050809 | 66 | 138 | 1.7 | 3.5 | 0.00 | 0.00 | 0.00 | 73 | 1012.9 |
| 20260506044334 | 66 | 156 | 2.6 | 3.5 | 0.00 | 0.00 | 0.00 | 72 | 1012.9 |
| 20260506043333 | 67 | 215 | 0.9 | 6.1 | 0.00 | 0.00 | 0.00 | 72 | 1012.9 |
| 20260506042331 | 67 | 106 | 0.9 | 3.5 | 0.00 | 0.00 | 0.00 | 71 | 1012.9 |
| 20260506041333 | 67 | 145 | 1.7 | 4.3 | 0.00 | 0.00 | 0.00 | 71 | 1012.9 |
| 20260506040331 | 67 | 152 | 1.7 | 4.3 | 0.00 | 0.00 | 0.00 | 70 | 1012.9 |
| 20260506035803 | 67 | 164 | 1.7 | 5.2 | 0.00 | 0.00 | 0.00 | 70 | 1012.9 |
| 20260506034333 | 67 | 160 | 1.7 | 3.5 | 0.00 | 0.00 | 0.00 | 70 | 1012.9 |
| 20260506033332 | 67 | 187 | 2.6 | 5.2 | 0.00 | 0.00 | 0.00 | 69 | 1012.9 |
| 20260506032333 | 67 | 144 | 1.7 | 3.5 | 0.00 | 0.00 | 0.00 | 68 | 1012.9 |
| 20260506031333 | 68 | 104 | 0.9 | 7.8 | 0.00 | 0.00 | 0.00 | 68 | 1012.9 |
| 20260506030332 | 68 | 98 | 0.0 | 5.2 | 0.00 | 0.00 | 0.00 | 67 | 1012.9 |
| 20260506025331 | 68 | 188 | 2.6 | 4.3 | 0.00 | 0.00 | 0.00 | 66 | 1012.6 |
| 20260506024332 | 69 | 134 | 1.7 | 4.3 | 0.00 | 0.00 | 0.00 | 65 | 1012.9 |
| 20260506023334 | 69 | 186 | 3.5 | 4.3 | 0.00 | 0.00 | 0.00 | 64 | 1012.9 |
| 20260506022334 | 69 | 119 | 1.7 | 4.3 | 0.00 | 0.00 | 0.00 | 63 | 1012.6 |
| 20260506021333 | 69 | 169 | 0.0 | 4.3 | 0.00 | 0.00 | 0.00 | 63 | 1012.9 |
| 20260506020332 | 69 | 205 | 1.7 | 3.5 | 0.00 | 0.00 | 0.00 | 62 | 1012.6 |
| 20260506015815 | 69 | 71 | 0.0 | 5.2 | 0.00 | 0.00 | 0.00 | 62 | 1012.9 |
| 20260506014333 | 69 | 107 | 1.7 | 4.3 | 0.00 | 0.00 | 0.00 | 62 | 1012.6 |
| 20260506013814 | 69 | 170 | 4.3 | 6.1 | 0.00 | 0.00 | 0.00 | 62 | 1012.3 |
| 20260506013253 | 70 | 120 | 1.7 | 5.2 | 0.00 | 0.00 | 0.00 | 61 | 1012.6 |
| 20260506011333 | 70 | 293 | 1.7 | 4.3 | 0.00 | 0.00 | 0.00 | 61 | 1012.3 |
| 20260506010334 | 71 | 139 | 0.9 | 4.3 | 0.00 | 0.00 | 0.00 | 59 | 1012.3 |
| 20260506005332 | 71 | 116 | 1.7 | 3.5 | 0.00 | 0.00 | 0.00 | 58 | 1012.3 |
| 20260506004335 | 71 | 181 | 1.7 | 2.6 | 0.00 | 0.00 | 0.00 | 56 | 1012.3 |
| 20260506003335 | 72 | 191 | 1.7 | 3.5 | 0.00 | 0.00 | 0.00 | 54 | 1011.9 |
| 20260506002335 | 73 | 128 | 1.7 | 4.3 | 0.00 | 0.00 | 0.00 | 52 | 1011.9 |
| 20260506001808 | 74 | 131 | 0.0 | 4.3 | 0.00 | 0.00 | 0.00 | 49 | 1011.6 |
| 20260506000332 | 75 | 148 | 1.7 | 4.3 | 0.00 | 0.00 | 0.00 | 47 | 1011.2 |
| 20260505235329 | 76 | 144 | 0.9 | 5.2 | 0.00 | 0.00 | 0.00 | 45 | 1011.6 |
| 20260505234334 | 76 | 212 | 1.7 | 5.2 | 0.00 | 0.00 | 0.00 | 44 | 1011.2 |
| 20260505233329 | 77 | 227 | 0.9 | 5.2 | 0.00 | 0.00 | 0.00 | 43 | 1011.2 |
| 20260505232328 | 77 | 218 | 2.6 | 4.3 | 0.00 | 0.00 | 0.00 | 43 | 1011.2 |
| 20260505231324 | 78 | 114 | 0.9 | 5.2 | 0.00 | 0.00 | 0.00 | 42 | 1011.2 |
| 20260505230824 | 79 | 125 | 2.6 | 9.6 | 0.00 | 0.00 | 0.00 | 41 | 1010.9 |
| 20260505225324 | 79 | 126 | 0.9 | 7.8 | 0.00 | 0.00 | 0.00 | 42 | 1011.2 |
| 20260505224323 | 80 | 103 | 0.0 | 7.8 | 0.00 | 0.00 | 0.00 | 42 | 1011.2 |
| 20260505223322 | 80 | 222 | 3.5 | 8.7 | 0.00 | 0.00 | 0.00 | 41 | 1011.2 |
| 20260505222320 | 80 | 268 | 1.7 | 11.3 | 0.00 | 0.00 | 0.00 | 40 | 1011.2 |
| 20260505221318 | 82 | 274 | 4.3 | 12.2 | 0.00 | 0.00 | 0.00 | 38 | 1011.2 |
| 20260505220316 | 85 | 242 | 1.7 | 7.0 | 0.00 | 0.00 | 0.00 | 37 | 1011.2 |
| 20260505215314 | 86 | 210 | 1.7 | 9.6 | 0.00 | 0.00 | 0.00 | 37 | 1011.2 |
| 20260505214312 | 87 | 240 | 4.3 | 7.0 | 0.00 | 0.00 | 0.00 | 34 | 1011.2 |
| 20260505213312 | 86 | 244 | 3.5 | 9.6 | 0.00 | 0.00 | 0.00 | 35 | 1011.2 |
| 20260505212311 | 87 | 255 | 4.3 | 11.3 | 0.00 | 0.00 | 0.00 | 34 | 1010.9 |
| 20260505211309 | 88 | 230 | 1.7 | 7.8 | 0.00 | 0.00 | 0.00 | 33 | 1010.9 |
| 20260505210751 | 89 | 247 | 3.5 | 9.6 | 0.00 | 0.00 | 0.00 | 31 | 1010.9 |
| 20260505205310 | 89 | 222 | 7.8 | 13.0 | 0.00 | 0.00 | 0.00 | 30 | 1010.6 |
| 20260505204306 | 89 | 236 | 2.6 | 8.7 | 0.00 | 0.00 | 0.00 | 30 | 1010.9 |
| 20260505203305 | 89 | 250 | 1.7 | 13.0 | 0.00 | 0.00 | 0.00 | 29 | 1010.9 |
| 20260505202306 | 89 | 153 | 1.7 | 11.3 | 0.00 | 0.00 | 0.00 | 30 | 1010.9 |
| 20260505202235 | 89 | 213 | 5.2 | 9.6 | 0.00 | 0.00 | 0.00 | 30 | 1010.9 |